星链-2686 (STARLINK-2686 )

导读

STARLINK-2686是美国SpaceX公司星链星座的一员,于2021年5月9日发射入轨,属于星链第一代V1.5批次卫星。单星重约295公斤,配备氪离子霍尔推进系统与Ku/Ka波段相控阵天线,运行在近地轨道,为全球用户提供低延迟宽带互联网服务,设计寿命约5年,是星链近万颗规模全球卫星互联网星座部署中的组成部分。

Basic Information
目录编号:
48464
目录名称:
STARLINK-2686
国际标识:
2021-040AN
轨道中心:
EARTH
卫星名称:
星链-2686
卫星全名:
星链-2686 (STARLINK-2686 )
卫星状态:
在轨 (已飞行1944 天)
发射日期:
2021-05-09 UTC
国别 :
美国 (US)
星等 :
--
Orbit Information
数据来源 国际轨道数据
星历时间: 2026-09-03T04:15:53+0800
1天前
查看轨道信息
半长轴: 6848.83km
偏心率: 0.0001072
轨道倾角: 53.160°
近地点辐角 78.293°
升交点赤经 86.773°
平近点角 281.819°
近地点: 469.958km
远地点: 471.428km
周期: 94.012分钟
每日圈数: 15.31716
Detailed Information
固有亮度:
5
最大亮度:
2.5
卫星平台:
Starlink V1.0
覆盖范围:
全球
运营商:
太空探索技术公司
运营商所在国:
美国
制造商(研发单位):
太空探索技术公司
制造商所在国:
美国
使用方式:
暂无
Satellite Introduction
星链(Starlink)计划是由太空探索技术公司(SpaceX)提出的一个巨型低轨卫星互联网星座项目,计划在2019年至2024年间在太空搭建由约1.2万颗卫星组成的“星链”网络,其中1584颗将部署在地球上空550千米处的近地轨道,并从2020年开始工作。该卫星仍在工作。
2D Orbit Map
3D Orbit Map
Orbit Altitude Analysis Chart
Orbit Inclination Analysis Chart
Orbit Comprehensive Analysis Chart
View Comprehensive Chart
Conjunction Data List
Event ID Objects TCA Miss Dist (km) Collision Risk Probability Collision Risk Index (CRI) Action
CDM_260903-053404-846406-797922
2026-09-03T
05:34:29+0000
2.826 km
极远距离
1.44036E-6 低风险 0.38
CDM_260904-080904-846405-633522
2026-09-04T
08:09:20+0000
2.846 km
极远距离
1.422771E-6 低风险 0.38
CDM_260829-182104-846406-566121
2026-08-29T
18:21:30+0000
2.941 km
极远距离
1.369955E-6 低风险 0.38
CDM_260827-211904-846405-254421
2026-08-27T
21:19:32+0000
2.087 km
极远距离
1.033772E-6 低风险 0.35
CDM_260827-203204-846405-254421
2026-08-27T
20:32:34+0000
2.765 km
极远距离
6.414148E-7 极低风险 0.31